SHT21B EGJB-EGLL

Flight info

Callsign SHT21B
Flight time 0h 34m
Altitude 19000
Route N0370F190 ORIS1F ORIST L982 ROXOG ROXO1H
Aircraft A320/M-SDE3FGIJ1KRWXY/SB1

Departure

Time 2026-05-07 05:41
Airport Guernsey Airport (EGJB)

Arrival

Time 2026-05-07 06:16
Airport London Heathrow Airport (EGLL)
Time Latitude Longitude Altitude Speed Heading
2026-05-07 05:06 49.43256 -2.59684 325 ft 0 kts 177°
2026-05-07 05:32 49.43275 -2.59686 326 ft 4 kts 176°
2026-05-07 05:32 49.43302 -2.59688 328 ft 4 kts 179°
2026-05-07 05:32 49.43329 -2.59685 328 ft 4 kts 200°
2026-05-07 05:33 49.43348 -2.59669 324 ft 4 kts 225°
2026-05-07 05:33 49.43361 -2.59635 327 ft 4 kts 262°
2026-05-07 05:33 49.43362 -2.59613 327 ft 0 kts 267°
2026-05-07 05:34 49.43362 -2.59614 327 ft 0 kts 267°
2026-05-07 05:35 49.43362 -2.59617 327 ft 2 kts 267°
2026-05-07 05:36 49.43361 -2.59663 324 ft 7 kts 267°
2026-05-07 05:36 49.43351 -2.59758 324 ft 11 kts 254°
2026-05-07 05:36 49.43366 -2.59854 323 ft 9 kts 335°
2026-05-07 05:36 49.43397 -2.59858 325 ft 2 kts 357°
2026-05-07 05:37 49.43436 -2.59862 324 ft 10 kts 357°
2026-05-07 05:37 49.43504 -2.59913 322 ft 14 kts 284°
2026-05-07 05:37 49.43500 -2.60097 315 ft 21 kts 267°
2026-05-07 05:37 49.43493 -2.60347 310 ft 22 kts 268°
2026-05-07 05:38 49.43487 -2.60568 308 ft 21 kts 267°
2026-05-07 05:38 49.43451 -2.60656 307 ft 10 kts 187°
2026-05-07 05:38 49.43352 -2.60653 300 ft 11 kts 192°
2026-05-07 05:38 49.43341 -2.60727 300 ft 8 kts 279°
2026-05-07 05:39 49.43351 -2.60820 301 ft 8 kts 279°
2026-05-07 05:39 49.43361 -2.60900 306 ft 7 kts 282°
2026-05-07 05:39 49.43365 -2.60979 311 ft 9 kts 266°
2026-05-07 05:39 49.43361 -2.61113 312 ft 14 kts 268°
2026-05-07 05:40 49.43369 -2.61269 313 ft 15 kts 298°
2026-05-07 05:40 49.43448 -2.61358 316 ft 10 kts 359°
2026-05-07 05:40 49.43467 -2.61310 315 ft 0 kts 91°
2026-05-07 05:40 49.43467 -2.61261 315 ft 30 kts 88°
2026-05-07 05:41 49.43489 -2.60482 309 ft 110 kts 87°
2026-05-07 05:41 49.43532 -2.59047 534 ft 146 kts 87°
2026-05-07 05:41 49.43588 -2.57424 1205 ft 160 kts 89°
2026-05-07 05:41 49.43640 -2.55599 1753 ft 183 kts 90°
2026-05-07 05:42 49.43692 -2.53529 2203 ft 203 kts 89°
2026-05-07 05:42 49.43767 -2.51334 2956 ft 209 kts 83°
2026-05-07 05:42 49.44412 -2.49308 3674 ft 221 kts 46°
2026-05-07 05:42 49.45787 -2.48149 3974 ft 230 kts 18°
2026-05-07 05:43 49.47332 -2.47516 4023 ft 229 kts 15°
2026-05-07 05:43 49.48927 -2.46957 4036 ft 250 kts 13°
2026-05-07 05:43 49.50697 -2.46341 4029 ft 266 kts 14°
2026-05-07 05:43 49.52522 -2.45697 4140 ft 272 kts 13°
2026-05-07 05:44 49.54337 -2.45041 5129 ft 272 kts 13°
2026-05-07 05:44 49.56180 -2.44358 6133 ft 274 kts 13°
2026-05-07 05:44 49.58047 -2.43651 7054 ft 278 kts 13°
2026-05-07 05:44 49.59936 -2.42928 7949 ft 281 kts 13°
2026-05-07 05:45 49.61847 -2.42191 8822 ft 285 kts 13°
2026-05-07 05:45 49.63792 -2.41444 9687 ft 290 kts 13°
2026-05-07 05:45 49.65766 -2.40689 10495 ft 294 kts 13°
2026-05-07 05:45 49.67765 -2.39918 11254 ft 298 kts 14°
2026-05-07 05:46 49.69702 -2.38708 11983 ft 304 kts 29°
2026-05-07 05:46 49.71451 -2.36754 12428 ft 321 kts 44°
2026-05-07 05:46 49.72982 -2.34075 12616 ft 344 kts 50°
2026-05-07 05:46 49.74554 -2.31181 13078 ft 355 kts 50°
2026-05-07 05:47 49.76161 -2.28240 13758 ft 360 kts 50°
2026-05-07 05:47 49.77794 -2.25267 14393 ft 364 kts 49°
2026-05-07 05:47 49.79441 -2.22268 15046 ft 367 kts 49°
2026-05-07 05:47 49.81099 -2.19249 15691 ft 370 kts 49°
2026-05-07 05:48 49.82775 -2.16195 16294 ft 373 kts 49°
2026-05-07 05:48 49.84457 -2.13121 16916 ft 376 kts 49°
2026-05-07 05:48 49.86156 -2.10011 17549 ft 379 kts 49°
2026-05-07 05:48 49.87868 -2.06877 18151 ft 383 kts 49°
2026-05-07 05:49 49.89594 -2.03711 18722 ft 386 kts 49°
2026-05-07 05:49 49.91333 -2.00516 18976 ft 388 kts 49°
2026-05-07 05:49 49.93092 -1.97279 19043 ft 397 kts 49°
2026-05-07 05:49 49.94886 -1.93979 19045 ft 402 kts 49°
2026-05-07 05:50 49.96692 -1.90646 19033 ft 404 kts 49°
2026-05-07 05:50 49.98516 -1.87336 19038 ft 404 kts 46°
2026-05-07 05:50 50.00604 -1.84428 19046 ft 403 kts 36°
2026-05-07 05:50 50.02974 -1.82131 19048 ft 401 kts 26°
2026-05-07 05:51 50.05469 -1.80171 19051 ft 402 kts 26°
2026-05-07 05:51 50.07960 -1.78205 19047 ft 402 kts 26°
2026-05-07 05:51 50.10449 -1.76233 19037 ft 402 kts 26°
2026-05-07 05:51 50.12852 -1.74005 19047 ft 403 kts 35°
2026-05-07 05:52 50.15035 -1.71268 19047 ft 403 kts 39°
2026-05-07 05:52 50.17194 -1.68474 19048 ft 403 kts 39°
2026-05-07 05:52 50.19350 -1.65684 19043 ft 403 kts 39°
2026-05-07 05:52 50.21482 -1.62918 19046 ft 403 kts 39°
2026-05-07 05:53 50.23639 -1.60115 19052 ft 404 kts 39°
2026-05-07 05:53 50.25879 -1.57476 19046 ft 403 kts 31°
2026-05-07 05:53 50.28360 -1.55471 19043 ft 401 kts 21°
2026-05-07 05:53 50.31005 -1.54097 19046 ft 400 kts 15°
2026-05-07 05:54 50.33647 -1.52826 18891 ft 392 kts 16°
2026-05-07 05:54 50.36212 -1.51572 18656 ft 381 kts 16°
2026-05-07 05:54 50.38705 -1.50344 18411 ft 371 kts 16°
2026-05-07 05:54 50.41157 -1.49131 18149 ft 369 kts 16°
2026-05-07 05:55 50.43598 -1.47925 17887 ft 366 kts 16°
2026-05-07 05:55 50.46024 -1.46729 17621 ft 365 kts 16°
2026-05-07 05:55 50.48447 -1.45535 17347 ft 364 kts 17°
2026-05-07 05:55 50.50855 -1.44348 17082 ft 363 kts 16°
2026-05-07 05:56 50.53252 -1.43115 16817 ft 361 kts 20°
2026-05-07 05:56 50.55512 -1.41421 16555 ft 360 kts 28°
2026-05-07 05:56 50.57707 -1.39513 16292 ft 360 kts 28°
2026-05-07 05:56 50.59896 -1.37631 16038 ft 357 kts 28°
2026-05-07 05:57 50.62082 -1.35764 15778 ft 356 kts 28°
2026-05-07 05:57 50.64258 -1.33909 15528 ft 354 kts 28°
2026-05-07 05:57 50.66421 -1.32059 15280 ft 353 kts 28°
2026-05-07 05:57 50.68543 -1.30233 15037 ft 351 kts 28°
2026-05-07 05:58 50.70709 -1.28362 14781 ft 350 kts 28°
2026-05-07 05:58 50.72841 -1.26517 14533 ft 349 kts 28°
2026-05-07 05:58 50.74945 -1.24698 14296 ft 347 kts 28°
2026-05-07 05:58 50.77048 -1.22842 14055 ft 347 kts 30°
2026-05-07 05:59 50.79101 -1.20850 13811 ft 345 kts 32°
2026-05-07 05:59 50.81106 -1.18776 13541 ft 344 kts 34°
2026-05-07 05:59 50.83095 -1.16663 13272 ft 343 kts 34°
2026-05-07 05:59 50.85066 -1.14564 13006 ft 341 kts 34°
2026-05-07 06:00 50.87031 -1.12485 12973 ft 339 kts 33°
2026-05-07 06:00 50.89004 -1.10419 13059 ft 341 kts 33°
2026-05-07 06:00 50.90986 -1.08360 13042 ft 341 kts 33°
2026-05-07 06:00 50.92970 -1.06302 13057 ft 341 kts 33°
2026-05-07 06:01 50.94955 -1.04246 13048 ft 341 kts 33°
2026-05-07 06:01 50.96938 -1.02190 13047 ft 341 kts 33°
2026-05-07 06:01 50.98920 -1.00130 13058 ft 340 kts 33°
2026-05-07 06:01 51.00781 -0.97895 13046 ft 341 kts 43°
2026-05-07 06:02 51.02415 -0.95162 12562 ft 341 kts 48°
2026-05-07 06:02 51.03988 -0.92362 12153 ft 336 kts 48°
2026-05-07 06:02 51.05533 -0.89599 11760 ft 333 kts 48°
2026-05-07 06:02 51.07060 -0.86859 11364 ft 330 kts 48°
2026-05-07 06:03 51.08576 -0.84138 10975 ft 327 kts 48°
2026-05-07 06:03 51.10082 -0.81443 10589 ft 325 kts 47°
2026-05-07 06:03 51.11573 -0.78781 10393 ft 316 kts 47°
2026-05-07 06:03 51.13005 -0.76219 10271 ft 305 kts 47°
2026-05-07 06:04 51.14390 -0.73740 10131 ft 295 kts 47°
2026-05-07 06:04 51.15741 -0.71319 9939 ft 288 kts 47°
2026-05-07 06:04 51.17072 -0.68935 9688 ft 287 kts 47°
2026-05-07 06:04 51.17951 -0.67362 9415 ft 288 kts 47°
2026-05-07 06:05 51.19268 -0.65002 9036 ft 287 kts 47°
2026-05-07 06:05 51.20604 -0.62599 8675 ft 286 kts 48°
2026-05-07 06:05 51.21923 -0.60225 8310 ft 285 kts 48°
2026-05-07 06:05 51.23237 -0.57858 7970 ft 284 kts 48°
2026-05-07 06:06 51.24530 -0.55525 7717 ft 272 kts 48°
2026-05-07 06:06 51.25745 -0.53334 7585 ft 254 kts 48°
2026-05-07 06:06 51.26950 -0.51368 7282 ft 243 kts 33°
2026-05-07 06:06 51.28479 -0.50339 7118 ft 241 kts
2026-05-07 06:07 51.30105 -0.50497 7007 ft 231 kts 341°
2026-05-07 06:07 51.31472 -0.51742 7002 ft 228 kts 315°
2026-05-07 06:07 51.32365 -0.53767 7003 ft 227 kts 291°
2026-05-07 06:07 51.32866 -0.56157 7003 ft 228 kts 287°
2026-05-07 06:08 51.33363 -0.58600 7008 ft 228 kts 288°
2026-05-07 06:08 51.33846 -0.60968 7008 ft 227 kts 288°
2026-05-07 06:08 51.34335 -0.63370 6996 ft 227 kts 288°
2026-05-07 06:08 51.34823 -0.65767 6966 ft 228 kts 287°
2026-05-07 06:09 51.35305 -0.68196 6690 ft 228 kts 287°
2026-05-07 06:09 51.35777 -0.70603 6416 ft 227 kts 287°
2026-05-07 06:09 51.36248 -0.73024 6044 ft 229 kts 287°
2026-05-07 06:09 51.36735 -0.75446 5664 ft 225 kts 292°
2026-05-07 06:10 51.37626 -0.77445 5298 ft 220 kts 320°
2026-05-07 06:10 51.38976 -0.78557 4938 ft 220 kts 347°
2026-05-07 06:10 51.40511 -0.78754 4574 ft 224 kts 357°
2026-05-07 06:10 51.42074 -0.78833 4197 ft 223 kts 357°
2026-05-07 06:11 51.43602 -0.78869 3852 ft 217 kts
2026-05-07 06:11 51.44992 -0.78092 3701 ft 210 kts 34°
2026-05-07 06:11 51.45962 -0.76425 3560 ft 203 kts 62°
2026-05-07 06:11 51.46346 -0.74326 3370 ft 193 kts 87°
2026-05-07 06:12 51.46362 -0.72213 3113 ft 187 kts 90°
2026-05-07 06:12 51.46371 -0.70159 2861 ft 181 kts 90°
2026-05-07 06:12 51.46382 -0.68185 2628 ft 172 kts 90°
2026-05-07 06:12 51.46392 -0.66304 2389 ft 166 kts 90°
2026-05-07 06:13 51.46402 -0.64479 2162 ft 162 kts 90°
2026-05-07 06:13 51.46411 -0.62735 1955 ft 149 kts 90°
2026-05-07 06:13 51.46420 -0.61106 1748 ft 144 kts 90°
2026-05-07 06:13 51.46428 -0.59517 1545 ft 142 kts 90°
2026-05-07 06:14 51.46435 -0.57936 1349 ft 141 kts 90°
2026-05-07 06:14 51.46443 -0.56380 1148 ft 141 kts 90°
2026-05-07 06:14 51.46449 -0.54816 959 ft 141 kts 89°
2026-05-07 06:14 51.46444 -0.53256 756 ft 136 kts 89°
2026-05-07 06:15 51.46444 -0.51751 553 ft 134 kts 88°
2026-05-07 06:15 51.46463 -0.50279 353 ft 132 kts 88°
2026-05-07 06:15 51.46477 -0.48810 165 ft 131 kts 88°
2026-05-07 06:15 51.46478 -0.47394 94 ft 119 kts 89°
2026-05-07 06:16 51.46486 -0.46273 92 ft 77 kts 90°
2026-05-07 06:16 51.46489 -0.45674 86 ft 39 kts 89°
2026-05-07 06:16 51.46506 -0.45282 88 ft 24 kts 66°
2026-05-07 06:16 51.46578 -0.45102 88 ft 12 kts 38°
2026-05-07 06:17 51.46659 -0.45127 88 ft 15 kts 297°
2026-05-07 06:17 51.46663 -0.45308 86 ft 18 kts 270°
2026-05-07 06:17 51.46662 -0.45527 86 ft 21 kts 269°
2026-05-07 06:17 51.46661 -0.45739 86 ft 20 kts 270°
2026-05-07 06:18 51.46661 -0.45978 86 ft 23 kts 270°
2026-05-07 06:18 51.46659 -0.46217 90 ft 20 kts 269°
2026-05-07 06:18 51.46658 -0.46458 90 ft 23 kts 270°
2026-05-07 06:18 51.46657 -0.46694 88 ft 19 kts 270°
2026-05-07 06:19 51.46657 -0.46923 88 ft 20 kts 270°
2026-05-07 06:19 51.46656 -0.47143 87 ft 19 kts 270°
2026-05-07 06:19 51.46655 -0.47374 86 ft 22 kts 270°
2026-05-07 06:19 51.46655 -0.47640 86 ft 25 kts 270°
2026-05-07 06:20 51.46654 -0.47918 86 ft 25 kts 269°
2026-05-07 06:20 51.46653 -0.48185 87 ft 19 kts 270°
2026-05-07 06:20 51.46652 -0.48407 86 ft 18 kts 269°
2026-05-07 06:20 51.46651 -0.48627 86 ft 21 kts 270°
2026-05-07 06:21 51.46694 -0.48751 89 ft 10 kts 354°
2026-05-07 06:21 51.46773 -0.48749 88 ft 13 kts 359°
2026-05-07 06:21 51.46856 -0.48753 87 ft 7 kts 348°
2026-05-07 06:21 51.46877 -0.48797 86 ft 6 kts 274°
2026-05-07 06:22 51.46892 -0.48858 90 ft 6 kts 343°
2026-05-07 06:22 51.46930 -0.48859 86 ft 0 kts 360°